Погода в Шелаеве

Россия / Белгородская область     50°07′16″N   38°04′16″E
темп.,
°C
ветер,
м/с
пор.,
м/с
влажн.,
%
обл.,
%
осадки,
мм/ч
давл.,
гПа
погр.,
м
11 апреля, вс
вс1100:00+5с37646 0.0 1025120
03:00+4ссв3470100 0.0 102660
06:00+4с31172100 0.0 1027259
09:00+8ссв7125389 0.0 1027730
12:00+12ссв794163 0.0 10261060
15:00+13св793990 0.0 10261132
18:00+11св71149100 0.0 1025914
21:00+9ссв71355100 0.0 1025662
12 апреля, пн
пн1200:00+8св61165100 0.0 1024417
03:00+8св51089100 0.0 1024351
06:00+7св51295100 0.0 1023309
09:00+12всв61077100 0.0 1022406
12:00+19в794642 0.0 1021989
15:00+22вюв71036100 0.0 10201508
18:00+19ююв5104792 0.0 1021334
21:00+14ююв366787 0.0 1022124
13 апреля, вт
вт1300:00+13вюв367272 0.0 1022112
03:00+12вюв41073100 0.0 1022249
06:00+12вюв41174100 0.0 1022330
09:00+15вюв61065100 0.0 1022663
12:00+19юв7104345 0.0 10211455
15:00+20ююв6103984 0.0 10202087
18:00+18ю2454100 0.0 1020174
21:00+14юв5106199 0.1 1022369
14 апреля, ср
ср1400:00+13вюв266991 0.0 1020222
03:00+11в3676100 0.0 1020129
06:00+11вюв387798 0.0 1019250
09:00+14юв5866100 0.0 1019619
12:00+18юв6847100 0.0 10181674
15:00+18ю7746100 0.0 10171561
18:00+16ю2350100 0.0 1017129
21:00+13ссз3365100 0.0 101634
15 апреля, чт
чт1500:00+11с3569100 0.0 101595
03:00+12юв1160100 0.0 101316
06:00+11вюв3466100 0.0 101377
09:00+14ююв5863100 0.0 1013798
12:00+11вюв6980100 0.8 1012651
15:00+9ююз71087100 2.2 1012673
18:00+9ююз3886100 0.1 1012360
21:00+9ююв2484100 0.1 101182